RH
16 15 15 16 18 18 17 16 15 14 14 15 14 13 13 14 14 14 14 14 14 14 13 14 13 13 13 13 13 12 12 12 11 11 11 11 11 12 12 13 13 12 11 11 10 10 10 9 10 12 14 13 12 11 10 11 12 11 12 12 12 13 12 10 11 12 11 11 11 12 12 10 10 10 11 11 10 11 20 25 28 32 31 34 38 37 42 46
18 16 16 18 19 19 17 16 15 15 14 15 16 14 13 13 14 14 14 14 15 14 15 14 14 14 14 13 13 13 12 12 11 11 10 11 11 12 13 13 13 12 12 11 11 11 11 9 10 12 14 13 12 11 10 10 11 11 11 11 11 12 11 11 13 13 11 11 11 12 12 11 11 10 10 11 10 13 22 28 31 35 34 36 39 38 43 46
19 18 18 20 21 20 19 16 15 15 14 15 17 17 15 14 14 15 15 15 15 15 15 15 14 14 14 14 13 13 12 12 11 10 10 11 10 11 12 13 12 12 12 11 11 12 12 11 12 13 13 13 12 11 10 9 10 10 11 11 11 11 11 11 12 12 11 10 12 12 12 12 11 10 10 11 12 16 24 30 34 38 38 39 41 41 42 44
20 19 20 22 22 22 19 16 16 16 15 15 17 18 17 15 15 15 15 15 15 15 15 15 15 14 14 14 14 13 12 13 13 12 12 12 11 12 12 12 12 12 12 11 12 14 14 13 14 14 13 13 12 11 10 9 10 10 9 9 10 11 12 12 11 12 11 11 11 12 12 11 10 10 10 10 11 17 23 28 30 35 42 45 44 42 42 45
22 21 22 23 24 22 20 17 17 16 15 15 16 18 18 16 15 16 16 16 16 16 16 15 15 14 14 14 14 14 14 18 20 16 16 15 13 13 12 12 12 12 12 11 14 16 15 14 16 17 15 14 14 11 10 9 10 10 8 9 11 12 12 12 11 12 12 12 11 11 12 10 10 10 10 10 10 15 20 22 23 26 37 45 44 43 45 46
23 23 24 25 24 23 20 18 18 17 16 17 17 17 17 16 15 15 16 16 17 17 17 16 16 15 15 14 15 14 15 22 25 21 19 17 14 13 12 12 12 12 10 11 14 16 15 13 16 19 16 14 14 12 11 10 10 10 9 10 11 11 12 11 11 13 12 11 12 11 11 10 10 10 10 10 9 14 17 19 21 23 28 36 41 42 45 46
24 25 25 26 25 22 19 18 19 18 18 18 18 17 16 16 14 14 14 15 16 16 17 16 16 16 15 15 14 15 17 19 20 21 21 20 16 14 13 12 11 10 9 11 14 14 15 13 14 18 16 14 13 12 13 13 12 10 9 10 11 11 11 12 11 13 12 11 11 11 11 10 10 10 10 9 10 15 18 21 25 26 28 31 37 40 42 44
26 27 27 26 24 21 20 19 19 20 19 19 18 17 16 15 14 13 12 13 13 15 16 16 16 15 15 14 14 19 21 16 15 18 21 20 17 16 14 12 11 9 8 11 14 14 15 13 13 17 16 13 13 13 15 15 13 11 8 9 11 11 11 11 11 12 12 11 10 10 10 10 10 10 10 9 11 17 20 24 28 27 29 31 34 38 41 42
28 29 28 26 23 21 21 20 20 21 20 20 19 18 16 15 14 13 12 12 12 13 13 14 15 14 14 13 15 22 21 16 15 17 19 17 15 14 13 12 11 9 8 12 13 14 14 13 12 14 14 13 13 15 16 15 14 12 10 9 10 11 11 11 11 11 12 11 9 8 8 8 9 8 9 8 9 16 21 23 30 30 28 29 29 34 40 41
30 31 29 26 23 23 22 21 21 21 21 21 19 19 17 15 14 13 12 11 11 11 12 13 13 13 13 13 20 25 20 17 17 16 16 14 13 12 11 11 11 9 8 11 12 13 13 12 13 14 15 15 14 15 15 14 12 12 12 10 9 10 11 11 11 10 11 10 9 7 8 7 7 7 8 7 5 13 23 26 31 30 26 28 31 33 39 43
31 31 30 26 25 24 23 22 21 21 21 21 20 19 17 15 14 12 12 11 11 11 11 11 11 13 12 13 21 24 19 19 19 15 15 13 11 10 9 10 12 9 7 9 11 11 12 13 16 16 16 17 16 15 14 13 13 13 14 14 12 11 11 11 10 10 10 10 9 8 8 7 7 7 7 7 6 10 20 28 31 28 27 30 32 35 41 45
33 32 30 27 26 25 24 23 22 22 22 21 20 19 17 15 13 12 11 11 11 11 10 11 11 11 11 12 15 16 16 19 18 15 15 12 9 8 9 10 13 11 9 10 12 11 14 16 16 16 16 16 16 15 15 15 14 15 17 17 17 15 14 13 11 9 9 9 8 8 9 8 7 7 6 7 8 9 15 24 27 27 29 30 29 33 42 45
35 33 31 29 28 27 25 24 23 23 23 21 20 18 16 14 13 12 11 11 11 11 10 10 10 9 12 13 12 12 14 16 16 16 16 12 8 9 11 12 13 14 14 14 15 16 17 17 15 14 14 13 13 13 14 14 13 14 14 14 15 16 14 11 10 10 9 8 9 10 11 10 8 7 7 7 9 10 17 22 23 27 29 28 26 29 38 43
37 36 34 32 30 29 28 25 24 24 23 22 20 18 16 14 14 13 12 12 11 12 10 10 10 10 13 13 10 11 11 12 14 15 16 12 9 10 12 12 12 16 18 15 17 21 19 18 15 13 13 11 11 12 12 13 12 12 12 12 11 11 10 9 10 10 9 9 10 11 11 10 9 8 8 9 8 12 20 23 24 26 26 26 27 29 35 38
40 39 37 35 34 33 30 27 25 25 24 22 20 17 16 15 15 15 14 14 13 13 11 11 10 11 17 15 9 11 12 11 12 13 14 13 11 12 12 13 12 16 19 16 18 20 20 20 19 16 14 11 12 12 12 14 14 12 12 13 11 10 10 10 11 11 10 10 11 11 11 10 9 9 8 9 9 12 21 26 26 27 25 25 27 29 32 31
41 41 41 38 37 36 32 27 27 26 25 22 20 18 17 17 17 17 17 16 16 15 14 17 17 15 22 19 12 13 13 11 11 12 13 13 12 13 13 13 12 14 18 19 20 20 18 19 20 20 19 16 15 14 14 16 16 14 13 14 12 12 12 12 11 12 13 12 11 12 13 11 10 9 9 9 9 10 19 25 26 25 24 26 29 28 29 28
42 42 44 42 40 38 32 28 27 27 25 22 20 18 18 19 19 18 18 18 18 18 17 24 27 23 22 20 17 17 15 13 12 11 12 12 13 14 13 13 12 13 16 19 20 18 16 15 18 21 21 21 20 18 19 21 21 18 14 14 14 14 15 14 12 12 15 14 13 14 15 13 10 10 9 9 9 10 16 23 24 24 25 30 33 31 30 28
43 43 46 44 42 39 32 28 28 27 24 22 20 20 19 19 18 19 21 21 22 24 23 25 30 31 26 21 19 18 17 16 13 11 12 12 13 14 14 13 13 13 14 17 18 16 15 12 14 17 19 20 20 20 21 19 18 18 18 19 20 18 18 19 16 14 17 17 15 15 15 14 11 11 11 10 11 13 17 21 23 24 26 29 31 31 30 27
42 43 46 45 42 39 32 28 27 26 23 21 21 20 20 22 26 29 27 25 29 31 31 30 29 29 26 22 20 19 19 19 16 13 13 13 14 16 17 15 13 14 14 15 15 14 14 13 13 14 15 15 15 15 15 14 13 17 19 20 23 25 23 22 21 19 20 19 17 17 17 16 13 12 12 12 13 14 15 20 22 23 24 26 28 31 31 27
41 44 46 46 42 37 31 28 26 25 23 22 21 20 25 32 38 42 35 30 31 28 27 29 27 22 21 22 24 23 22 22 19 16 14 15 15 17 20 20 17 16 16 15 17 16 15 16 16 14 13 12 11 11 11 12 14 17 18 18 21 25 26 24 22 20 22 22 22 22 19 17 16 14 13 12 13 13 14 20 23 23 24 25 26 30 31 30
42 45 47 45 41 35 30 27 26 25 23 22 21 22 29 34 36 40 37 32 30 26 24 25 25 23 22 23 26 27 24 22 21 17 15 17 17 18 21 22 20 18 16 16 19 19 18 19 17 12 10 10 11 13 13 13 17 19 19 19 19 23 29 29 25 23 23 24 25 23 19 17 16 16 15 12 13 13 13 20 27 26 25 26 26 29 30 31
43 46 47 45 39 32 29 27 26 26 24 23 23 22 26 30 31 33 33 31 30 29 29 27 27 27 25 25 29 29 26 24 23 19 17 17 18 20 21 20 20 18 17 18 22 23 21 19 16 11 10 11 12 15 15 15 19 20 20 21 20 24 31 31 27 25 25 26 27 25 22 20 18 16 16 14 13 13 12 17 25 27 26 27 26 27 28 29
43 46 47 43 36 31 29 28 27 27 26 25 24 22 25 29 30 29 29 30 30 28 28 29 28 28 26 27 29 29 27 24 24 21 17 17 17 18 20 19 18 19 20 21 23 24 22 18 15 11 12 13 14 15 15 17 20 21 21 21 21 26 32 32 29 26 25 26 25 24 23 24 21 17 17 16 13 13 12 14 20 24 24 24 24 24 25 26
42 45 45 41 35 32 30 29 29 33 34 29 25 24 26 28 28 28 28 29 29 25 24 25 25 26 24 26 27 25 25 23 24 22 18 17 17 17 20 19 17 20 22 21 22 23 21 19 17 16 17 17 17 16 16 19 21 22 23 22 23 28 32 32 30 27 25 26 26 24 26 28 24 19 17 16 14 14 14 12 15 20 23 23 22 22 23 24
41 44 45 41 37 34 32 33 37 42 40 32 30 29 28 28 29 30 30 32 32 27 23 22 22 23 20 23 25 22 22 22 22 23 20 18 19 17 19 20 19 22 23 21 24 23 21 22 25 24 23 21 20 19 17 18 21 23 26 23 22 27 31 30 29 28 27 30 30 25 28 32 26 20 19 17 15 16 16 15 16 19 21 24 25 24 23 24
41 44 44 42 39 35 35 40 44 43 38 34 33 32 30 30 30 30 32 37 35 28 26 24 23 23 20 20 22 21 22 20 19 23 23 22 23 20 17 19 19 20 22 21 25 25 20 22 28 28 26 24 21 18 17 18 21 23 25 24 21 23 28 28 26 26 25 28 28 24 28 33 27 20 19 18 17 17 17 18 19 21 22 24 27 26 24 25
41 43 45 43 40 37 36 43 46 41 38 37 34 33 31 30 31 29 38 51 44 30 30 29 27 26 24 22 20 19 23 20 16 20 22 22 25 22 18 20 20 19 21 22 26 26 20 21 26 26 26 24 21 19 18 19 21 22 21 21 20 19 22 25 25 24 22 21 22 24 27 27 23 22 19 17 18 19 21 21 20 24 28 28 29 28 29 32
41 43 44 43 41 37 35 39 40 38 39 39 34 34 31 30 31 31 48 66 51 31 31 32 30 27 26 26 21 18 21 21 17 17 18 21 26 26 21 21 22 20 21 23 27 25 21 21 25 25 24 25 23 22 20 19 22 23 19 17 18 18 19 21 22 22 20 19 22 26 26 22 22 23 19 16 20 25 30 30 29 31 34 34 33 31 34 37
41 40 42 42 40 39 39 36 35 36 38 38 36 34 30 30 32 37 57 69 49 33 35 34 31 28 26 26 23 20 19 20 22 19 18 21 24 27 25 21 22 23 22 23 24 23 22 22 23 24 26 27 27 25 22 21 23 22 18 17 18 20 21 21 22 21 19 21 25 25 23 21 23 23 21 25 31 34 35 36 37 37 37 39 38 35 38 42
41 39 40 41 39 41 40 34 34 37 35 37 37 32 29 32 38 48 61 61 48 41 40 37 35 32 28 27 26 24 18 19 24 22 20 22 23 25 26 24 24 26 26 24 22 21 22 24 26 28 28 26 26 26 24 23 24 22 18 18 19 21 22 23 25 22 22 28 27 22 20 20 21 25 29 36 40 40 39 39 40 39 40 44 42 40 43 46
41 40 39 39 38 40 39 35 39 43 40 40 37 31 33 38 48 60 59 48 45 48 44 41 39 34 33 31 28 25 20 22 27 24 20 22 24 23 24 26 25 27 30 28 25 22 20 22 28 31 29 28 28 28 26 23 22 20 19 20 22 24 23 23 25 24 27 33 27 18 19 19 22 32 39 41 41 41 40 41 42 41 42 47 46 45 48 49
40 40 38 36 36 35 37 39 44 46 42 41 38 35 40 47 54 62 56 42 42 47 43 41 39 37 36 34 29 25 22 25 28 25 20 21 24 22 20 24 25 27 31 30 27 25 21 20 24 29 32 32 31 29 26 23 20 19 19 22 26 28 28 28 30 30 30 29 22 17 19 21 29 41 44 42 41 41 40 41 43 44 45 51 52 51 52 52
40 38 36 35 34 32 33 40 45 44 41 40 40 40 50 63 59 50 49 46 43 42 39 38 38 36 35 32 31 28 25 27 28 26 22 19 24 24 20 21 23 25 30 31 30 28 25 22 21 26 32 32 28 27 28 25 21 20 21 23 28 29 30 32 31 30 28 24 21 21 23 30 43 50 49 46 43 42 43 44 46 48 51 54 56 58 58 57
39 38 38 36 34 32 30 38 46 44 41 43 45 47 61 73 58 42 47 49 43 41 39 39 40 37 35 32 30 31 30 30 29 27 25 20 22 26 22 20 22 25 27 30 33 32 32 31 27 26 28 27 27 27 28 27 24 23 22 24 28 26 27 30 28 29 32 30 29 30 33 42 53 57 55 54 49 46 49 52 52 53 54 53 52 55 57 57
41 42 44 39 36 34 30 38 47 44 44 47 49 54 63 64 52 48 51 45 40 42 40 42 43 38 36 32 29 31 33 35 34 30 28 24 22 26 24 21 21 23 25 29 32 31 33 34 30 29 29 27 29 30 28 27 28 27 24 24 27 26 24 25 26 29 35 38 38 40 47 52 55 57 59 59 56 54 55 55 53 54 53 51 51 54 55 56
43 47 50 44 41 39 33 38 45 43 46 49 50 54 53 50 49 50 48 40 40 42 41 43 42 35 33 30 29 33 35 39 40 36 33 29 26 25 24 23 21 21 23 27 29 28 32 35 31 33 37 30 28 31 28 25 30 31 28 27 27 28 25 23 29 32 32 38 40 41 54 61 56 59 64 63 61 59 60 61 60 61 61 57 57 58 59 61
44 51 53 48 46 43 35 37 40 40 43 46 49 50 45 46 51 47 42 42 41 39 38 42 39 33 31 28 29 33 35 39 44 43 38 34 31 28 24 24 23 21 21 23 27 30 34 39 37 35 41 37 30 31 29 23 27 32 35 35 32 32 29 24 30 36 36 41 38 35 53 63 61 66 69 66 66 63 64 69 68 68 69 66 62 61 62 66
43 48 51 47 47 45 36 32 34 37 40 43 45 45 43 50 52 42 39 43 40 36 36 35 31 28 28 27 30 33 36 39 43 43 41 37 37 35 29 26 24 23 22 22 26 31 33 39 41 37 40 44 39 37 34 26 24 29 34 37 39 42 40 29 27 34 41 45 38 37 52 61 63 71 75 75 77 75 74 75 73 72 72 70 67 65 65 66
40 50 56 47 44 45 35 29 33 36 38 40 40 38 42 51 49 38 36 40 37 35 34 30 25 24 26 29 32 35 38 41 41 42 44 43 44 46 41 35 31 26 23 23 25 31 34 37 41 39 40 46 45 41 40 33 25 25 29 34 39 45 47 40 33 32 37 43 42 46 60 69 70 72 74 78 80 77 79 80 76 75 74 72 72 70 68 68
45 61 66 49 41 41 33 30 34 36 37 36 33 33 40 50 47 36 34 37 35 34 35 31 27 29 32 33 35 38 40 42 41 41 44 45 49 56 50 42 42 37 30 27 23 27 36 37 39 40 40 46 47 42 41 38 32 29 28 30 32 37 42 43 40 36 35 41 45 47 60 71 73 71 73 79 78 74 78 82 79 77 76 75 75 73 72 73
55 72 68 48 41 39 33 33 34 34 34 30 29 35 41 47 45 36 34 36 33 32 33 29 29 34 35 35 37 40 42 45 46 45 46 47 52 60 55 47 48 47 41 36 30 29 36 40 42 42 41 44 46 42 41 41 41 39 35 31 29 32 39 44 48 44 37 41 48 53 65 73 70 69 73 76 76 73 74 79 80 78 75 74 74 75 74 74
61 82 73 50 41 38 33 35 34 31 30 27 33 43 43 42 41 36 35 34 30 30 31 28 29 33 32 34 37 39 42 46 47 47 49 53 56 59 57 52 50 49 47 47 46 40 37 38 40 41 41 42 42 43 44 43 41 41 40 37 33 32 36 42 51 50 42 45 52 57 70 76 71 70 70 70 72 70 68 72 78 77 74 72 72 74 74 75
66 88 80 53 41 38 33 35 33 28 25 30 42 50 45 43 41 35 32 31 27 26 27 26 29 31 30 33 36 37 43 46 46 48 50 52 55 55 55 55 52 50 50 53 53 46 40 40 40 38 40 44 43 42 44 44 43 44 46 45 41 39 37 38 46 47 46 52 56 61 73 77 74 72 69 68 71 71 70 74 76 77 77 74 73 74 74 75
75 90 81 57 41 36 35 39 40 36 35 43 51 51 47 43 39 36 34 32 30 28 25 23 26 29 28 31 35 38 42 46 46 48 48 49 54 55 54 57 55 52 56 60 57 50 47 49 46 42 44 48 48 48 51 52 51 51 57 57 53 48 45 45 45 45 50 52 50 62 78 78 74 75 72 69 72 74 76 78 76 75 75 74 75 75 73 73
85 93 85 64 44 37 40 45 48 49 51 52 51 50 51 47 41 39 36 32 31 31 29 27 24 25 26 28 34 37 40 45 46 46 46 48 53 54 54 58 57 55 60 64 61 56 55 55 53 53 56 57 57 61 67 67 61 58 61 64 62 56 52 55 54 53 61 60 53 63 76 76 76 77 72 70 71 73 76 78 77 75 72 72 72 70 69 70
91 96 88 71 51 47 53 55 52 52 52 51 52 54 57 54 50 45 39 34 31 28 29 30 25 25 26 26 30 32 33 38 41 42 45 49 54 56 55 58 59 59 62 64 61 60 61 61 60 60 59 59 61 67 70 68 67 68 66 65 67 61 54 57 60 62 68 70 68 68 69 73 79 76 69 67 68 72 73 73 75 74 72 71 69 66 67 69
93 97 88 72 60 60 68 70 65 62 60 60 64 63 58 55 56 54 47 39 32 28 29 30 28 29 29 26 27 27 26 27 31 35 41 47 52 52 51 54 60 63 65 64 62 63 66 67 67 64 59 56 57 62 65 65 67 72 74 73 70 64 58 60 64 67 70 72 75 74 69 72 77 74 68 65 65 70 70 67 70 73 73 72 70 69 69 70
96 96 84 71 66 67 70 74 74 73 73 70 70 67 58 54 56 55 51 41 32 31 34 34 30 29 29 29 30 32 29 27 31 36 41 45 48 46 45 49 57 61 63 67 69 71 73 73 71 69 65 60 57 58 63 68 67 67 72 76 73 68 67 69 69 70 71 71 74 77 75 74 73 72 70 67 66 69 68 65 67 71 72 73 74 75 75 74
96 94 83 71 69 64 61 66 69 71 74 70 66 64 58 53 52 49 47 43 39 36 36 37 36 31 31 34 36 39 37 32 35 41 44 47 49 48 46 48 53 57 63 72 78 79 79 80 78 73 71 70 64 59 63 69 68 67 72 75 76 75 74 73 72 72 71 72 74 77 77 75 72 70 67 63 64 67 68 68 68 71 74 76 77 78 78 78
93 92 85 75 75 68 58 60 63 68 71 65 60 60 56 53 52 48 45 44 45 43 39 39 41 37 37 39 39 43 45 41 40 41 44 49 50 48 47 46 50 55 60 70 78 79 80 86 85 78 75 76 71 68 71 71 67 73 79 79 80 83 82 78 76 73 71 73 76 74 73 74 72 67 61 59 62 67 69 69 69 72 75 76 77 79 80 81
90 89 85 81 83 77 65 60 60 64 67 60 55 55 52 51 50 47 46 44 44 48 45 43 45 42 40 43 46 47 46 41 38 35 38 44 45 43 44 46 48 53 57 62 69 74 76 83 87 82 79 79 77 76 79 75 71 76 82 82 83 86 86 82 81 78 74 73 75 77 78 78 73 66 61 61 63 67 70 70 70 72 74 76 77 79 80 81
89 87 84 80 80 74 65 61 56 57 60 55 51 51 49 48 46 46 48 45 42 46 46 44 46 46 45 48 51 48 41 36 35 32 31 34 36 35 36 39 44 50 55 59 64 68 68 72 80 81 80 80 79 77 78 77 77 80 79 80 82 83 82 82 84 86 81 76 79 84 84 80 74 69 67 67 68 70 72 73 74 75 75 76 76 75 77 80